This is the latest recevied weather packets stored in our database for station/object NY3Q. If no packets are shown the sender has not sent any weather packets the latest 10 day(s).
| Time | Temp. | Humidity | Pressure | Rain* | Wind** | Luminosity | Snow |
|---|---|---|---|---|---|---|---|
| 1778185287 | 28.89° C | 60% | 1012.8 hPa | 0 mm | - | 61 W/m² | - |
| 1778184982 | 28.89° C | 60% | 1012.8 hPa | 0 mm | - | 52 W/m² | - |
| 1778184680 | 28.89° C | 59% | 1012.5 hPa | 0 mm | - | 50 W/m² | - |
| 1778184375 | 29.44° C | 59% | 1012.6 hPa | 0 mm | - | 82 W/m² | - |
| 1778184071 | 29.44° C | 59% | 1012.8 hPa | 0 mm | - | 107 W/m² | - |
| 1778183769 | 29.44° C | 59% | 1012.7 hPa | 0 mm | - | 101 W/m² | - |
| 1778183466 | 29.44° C | 58% | 1012.7 hPa | 0 mm | - | 104 W/m² | - |
| 1778183162 | 30° C | 58% | 1012.9 hPa | 0 mm | - | 113 W/m² | - |
| 1778182858 | 30° C | 58% | 1012.8 hPa | 0 mm | - | 141 W/m² | - |
| 1778182555 | 30° C | 56% | 1013 hPa | 0 mm | - | 166 W/m² | - |
| 1778182252 | 30° C | 57% | 1013 hPa | 0 mm | - | 191 W/m² | - |
| 1778181948 | 30° C | 57% | 1013.1 hPa | 0 mm | - | 241 W/m² | - |
| 1778181645 | 30° C | 57% | 1013.3 hPa | 0 mm | - | 265 W/m² | - |
| 1778181340 | 30° C | 58% | 1013.6 hPa | 0 mm | - | 248 W/m² | - |
| 1778181038 | 30° C | 57% | 1013.8 hPa | 0 mm | - | 276 W/m² | - |
| 1778180735 | 30° C | 56% | 1013.8 hPa | 0 mm | - | 267 W/m² | - |
| 1778180434 | 29.44° C | 58% | 1013.7 hPa | 0 mm | - | 191 W/m² | - |
| 1778180132 | 29.44° C | 59% | 1013.7 hPa | 0 mm | - | 231 W/m² | - |
| 1778179828 | 30° C | 59% | 1014 hPa | 0 mm | - | 189 W/m² | - |
| 1778179527 | 30° C | 59% | 1013.9 hPa | 0 mm | - | 215 W/m² | - |
| 1778179224 | 30° C | 58% | 1014.2 hPa | 0 mm | - | 228 W/m² | - |
| 1778178920 | 30° C | 58% | 1014.3 hPa | 0 mm | - | 263 W/m² | - |
| 1778178617 | 30° C | 57% | 1014 hPa | 0 mm | - | 264 W/m² | - |
| 1778178313 | 30.56° C | 56% | 1014.4 hPa | 0 mm | - | 367 W/m² | - |
| 1778178009 | 30.56° C | 56% | 1014.2 hPa | 0 mm | - | 472 W/m² | - |
* Rain latest hour (hover to see other rain measurements)
** Current wind speed in m/s (hover to see current wind gust speed)